COSMOS 2251 DEB, 34301

Orbit data source: Space-Track

COSMOS 2251 DEB, 34301 is space debris in LEO originally from a launch on Wed, 16 Jun 1993 UTC launched from the Plesetsk Missile And Space Complex (PKMTR). The debris from Iridium 33, an American commercial communications satellite, has been tracked extensively since its accidental collision with the defunct Russian satellite Cosmos 2251 in 2009. This event, occurring at high speed in low Earth orbit (LEO), generated thousands of pieces of space debris, significantly increasing the risk of further collisions. The Iridium 33 debris cloud has impacted space traffic management and orbital debris mitigation strategies, making it a subject of ongoing study in space situational awareness.

Loading next visibility...
Identifier
34301, 1993-036MX
Orbit
LEO
Country
Flag of CISCIS
Related business
Manufacturer
Unknown
Mission
Spacecraft
Bus & Motor
Unknown
Mass
Unknown
Launch date (UTC)
1993-06-16 (33 years ago)
Launch vehicle
Unknown
Launch site
Plesetsk Missile And Space Complex (PKMTR)
Object type
Payload
Rocket body
Debris
Shape & HBR
Unknown shape, 0.1 m
Radar Cross Section
Medium (>0.1 m² and <1 m²)

Expand to show TLE details & history
Last TLE update: 14 hours ago

TLE from 14 hours ago
0 COSMOS 2251 DEB
1 34301U 93036MX  26236.36874655  .00032842  00000-0  27248-2 0  9999
2 34301  74.0017  14.5721 0011179  31.6397 357.9809 14.98599597921986
Epoch: 2026-08-24T08:50Z
TLE epoch observation values (Epoch: 2026-08-24T08:50:59.701Z)
Latitude
28.41524°
Longitude
-81.95331°
Altitude
566.702 km
Speed
7.585 km/s
True Right ascension
01h 33m 47s
True Declination
28° 16' 03"
Sunlit
Object was in full shadow at epoch
Visualization orbit readout
Latitude
Unknown
Longitude
Unknown
Altitude
Unknown
Speed
Unknown
Apparent Right ascension
Unknown
Apparent Declination
Unknown
Sunlit
N/A
Visualization observer readout
Local Sidereal Time
13:47:33
Azimuth
Unknown
Elevation
Unknown
Doppler factor
Unknown
Orbital elements
Apogee altitude
576.547 km
Perigee altitude
561.015 km
Semi-major axis
6,946.918 km
Eccentricity
0.00112
Inclination
74.0017°
RAAN
14.5721°
Arg. of periapsis
31.6397°
True anomaly
357.97638°
Mean anomaly
357.9809°
Eccentric anomaly
357.97864°
Mean motion
3.74848 °/min
Orbital period
96.04 mins
BSTAR
0.0027248
Loading maneuver chart data...
Computing Atmospheric mass density...

Documentation

Showing up to 5 results
|